SCP
0 0 0 0 0 0 0 0 0 0 0 0 0 0 0 0 0 0 0 0 0 0 0 0 0 0 0 0 0 0 0 0 0 0 0 0 0 0 0 0 0 0 0 0
0 0 0 0 0 0 0 0 0 0 0 0 0 0 0 0 0 0 0 0 0 0 0 0 0 0 0 0 0 0 0 0 0 0 0 0 0 0 0 0 0 0 0 0
0 0 0 0 0 0 0 0 0 0 0 0 0 0 0 0 0 0 0 0 0 0 0 0 0 0 0 0 0 0 0 0 0 0 0 0 0 0 0 0 0 0 0 0
0 0 0 0 0 0 0 0 0 0 0 0 0 0 0 0 0 0 0 0 0 0 0 0 0 0 0 0 0 0 0 0 0 0 0 0 0 0 0 0 0 0 0 0
0 0 0 0 0 0 0 0 0 0 0 0 0 0 0 0 0 0 0 0 0 0 0 0 0 0 0 0 0 0 0 0 0 0 0 0 0 0 0 0 0 0 0 0
0 0 0 0 0 0 0 0 0 0 0 0 0 0 0 0 0 0 0 0 0 0 0 0 0 0 0 0 0 0 0 0 0 0 0 0 0 0 0 0 0 0 0 0
0 0 0 0 0 0 0 0 0 0 0 0 0 0 0 0 0 0 0 0 0 0 0 0 0 0 0 0 0 0 0 0 0 0 0 0 0 0 0 0 0 0 0 0
0 0 0 0 0 0 0 0 0 0 0 0 0 0 0 0 0 0 0 0 0 0 0 0 0 0 0 0 0 0 0 0 0 0 0 0 0 0 0 0 0 0 0 0
0 0 0 0 0 0 0 0 0 0 0 0 0 0 0 0 0 0 0 0 0 0 0 0 0 0 0 0 0 0 0 0 0 0 0 0 0 0 0 0 0 0 0 0
0 0 0 0 0 0 0 0 0 0 0 0 0 0 0 0 0 0 0 0 0 0 0 0 0 0 0 0 0 0 0 0 0 0 0 0 0 0 0 0 0 0 0 0
0 0 0 0 0 0 0 0 0 0 0 0 0 0 0 0 0 0 0 0 0 0 0 0 0 0 0 0 0 0 0 0 0 0 0 0 0 0 0 0 0 0 0 0
0 0 0 0 0 0 0 0 0 0 0 0 0 0 0 0 0 0 0 0 0 0 0 0 0 0 0 0 0 0 0 0 0 0 0 0 0 0 0 0 0 0 0 0
0 0 0 0 0 0 0 0 0 0 0 0 0 0 0 0 0 0 0 0 0 0 0 0 0 0 0 0 0 0 0 0 0 0 0 0 0 0 0 0 0 0 0 0
0 0 0 0 0 0 0 0 0 0 0 0 0 0 0 0 0 0 0 0 0 0 0 0 0 0 0 0 0 0 0 0 0 0 0 0 0 0 0 0 0 0 0 0
0 0 0 0 0 0 0 0 0 0 0 0 0 0 0 0 0 0 0 0 0 0 0 0 0 0 0 0 0 0 0 0 0 0 0 0 0 0 0 0 0 0 0 0
0 0 0 0 0 0 0 0 0 0 0 0 0 0 0 0 0 0 0 0 0 0 0 0 0 0 0 0 0 0 0 0 0 0 0 0 0 0 0 0 0 0 0 0
0 0 0 0 0 0 0 0 0 0 0 0 0 0 0 0 0 0 0 0 0 0 0 0 0 0 0 0 0 0 0 0 0 0 0 0 0 0 0 0 0 0 0 0
0 0 0 0 0 0 0 0 0 0 0 0 0 0 0 0 0 0 0 0 0 0 0 0 0 0 0 0 0 0 0 0 0 0 0 0 0 0 0 0 0 0 0 0
0 0 0 0 0 0 0 0 0 0 0 0 0 0 0 0 0 0 0 0 0 0 0 0 0 0 0 0 0 0 0 0 0 0 0 0 0 0 0 0 0 0 0 0
0 0 0 0 0 0 0 0 0 0 0 0 0 0 0 0 0 0 0 0 0 0 0 0 0 0 0 0 0 0 0 0 0 0 0 0 0 0 0 0 0 0 0 0
0 0 0 0 0 0 0 0 0 0 0 0 0 0 0 0 0 0 0 0 0 0 0 0 0 0 0 0 0 0 0 0 0 0 0 0 0 0 0 0 0 0 0 0
0 0 0 0 0 0 0 0 0 0 0 0 0 0 0 0 0 0 0 0 0 0 0 0 0 0 0 0 0 0 0 0 0 0 0 0 0 0 0 0 0 0 0 0
0 0 0 0 0 0 0 0 0 0 0 0 0 0 0 0 0 0 0 0 0 0 0 0 0 0 0 0 0 0 0 0 0 0 0 0 0 0 0 0 0 0 0 0
0 0 0 0 0 0 0 0 0 0 0 0 0 0 0 0 0 0 0 0 0 0 0 0 0 0 0 0 0 0 0 0 0 0 0 0 0 0 0 0 0 0 0 0
0 0 0 0 0 0 0 0 0 0 0 0 0 0 0 0 0 0 0 0 0 0 0 0 0 0 0 0 0 0 0 0 0 0 0 0 0 0 0 0 0 0 0 0
0 0 0 0 0 0 0 0 0 0 0 0 0 0 0 0 0 0 0 0 0 0 0 0 0 0 0 0 0 0 0 0 0 0 0 0 0 0 0 0 0 0 0 0
0 0 0 0 0 0 0 0 0 0 0 0 0 0 0 0 0 0 0 0 0 0 0 0 0 0 0 0 0 0 0 0 0 0 0 0 0 0 0 0 0 0 0 0
Wind_Speed
11 9 7 9 9 8 9 9 9 8 7 3 0 0 2 3 3 2 2 2 2 1 1 1 0 0 0 1 1 1 1 1 1 1 1 0 1 1 1 1 1 1 1 2
11 11 10 10 10 10 10 10 10 10 7 2 2 1 1 2 2 1 1 1 1 1 1 1 1 1 1 1 1 0 1 1 1 1 1 0 0 1 1 1 1 1 2 2
9 10 11 11 10 10 8 7 7 7 4 2 2 1 1 1 1 0 0 0 0 1 1 1 1 1 1 2 0 0 0 1 1 1 1 1 1 1 1 1 1 1 1 1
7 10 11 5 1 2 5 6 5 4 2 2 2 1 2 1 1 1 1 2 1 1 1 1 1 1 1 1 0 0 0 0 1 1 1 1 1 1 1 1 1 2 2 1
6 9 9 5 2 2 4 5 4 3 2 3 2 1 0 2 2 2 1 1 1 1 2 1 1 0 1 1 0 0 0 0 0 0 1 1 1 2 2 2 2 2 2 2
6 8 7 1 3 3 2 4 2 2 2 2 1 1 1 2 2 2 2 2 1 1 2 2 2 1 1 1 1 1 1 1 1 1 1 1 2 2 2 2 2 2 2 2
9 9 7 1 1 1 2 1 4 3 2 2 2 2 2 2 2 2 2 1 2 2 2 1 2 2 2 2 2 1 1 1 1 1 1 2 2 2 1 1 2 2 2 2
7 9 5 2 1 0 2 4 5 4 3 2 2 2 2 2 2 2 2 1 1 1 1 1 1 1 2 2 2 1 1 1 1 1 1 1 1 1 1 1 2 2 2 3
3 2 2 2 2 3 4 4 4 4 4 3 1 1 2 1 1 1 1 1 1 0 1 1 1 1 2 2 2 2 1 2 1 1 1 1 1 1 1 1 1 2 2 2
5 3 2 2 1 2 3 4 4 4 3 3 2 1 1 1 1 1 1 1 1 1 1 2 1 1 2 2 2 2 2 2 1 1 2 1 1 1 1 1 2 2 2 2
7 5 3 3 3 3 3 3 4 3 3 3 2 1 2 2 1 1 2 1 1 1 2 2 2 1 1 1 2 3 3 2 2 1 1 1 1 1 2 2 3 3 2 2
6 5 5 4 3 4 3 3 3 3 3 2 2 2 2 2 1 1 2 2 2 2 2 3 3 2 2 1 2 3 3 2 2 1 1 1 1 2 3 4 5 5 5 5
6 5 5 6 5 4 3 3 3 3 2 2 2 1 1 1 2 2 2 2 3 3 3 3 3 3 3 2 2 3 3 2 1 2 2 2 2 2 3 3 4 5 6 6
4 5 5 4 4 4 3 3 3 3 3 2 2 2 2 2 2 2 3 3 3 3 3 3 2 3 4 4 3 3 2 3 2 2 2 2 3 3 3 3 3 3 4 6
5 5 5 4 3 3 2 3 3 2 2 2 2 2 2 2 2 3 3 3 3 3 3 3 2 3 3 3 4 4 3 2 2 2 2 3 3 3 3 4 3 3 3 3
5 4 4 3 3 3 2 2 2 2 2 2 2 2 2 3 2 2 3 3 3 3 3 2 2 2 3 3 3 3 3 4 4 3 3 3 3 3 3 3 3 3 3 2
5 4 3 3 3 3 3 2 2 2 2 2 2 2 2 2 3 3 3 3 3 2 2 2 2 2 3 2 2 2 2 3 4 4 3 3 3 3 3 3 3 3 3 3
4 3 3 3 3 3 2 2 1 2 1 2 2 2 2 3 3 3 3 3 3 2 2 2 2 3 3 2 2 2 3 3 3 3 3 3 3 3 3 3 4 5 4 4
3 2 2 2 3 2 2 2 1 1 1 1 2 2 3 3 3 3 3 3 3 3 3 2 4 3 3 2 3 2 3 3 3 3 3 4 4 3 3 3 4 4 4 4
2 1 1 1 1 1 1 1 1 1 1 1 2 3 3 3 3 3 3 3 2 2 3 4 3 3 2 2 3 3 3 3 3 3 3 3 3 4 4 4 4 4 4 4
1 1 1 1 0 1 1 1 1 1 2 2 2 3 3 3 3 3 3 3 2 3 3 4 3 2 2 3 4 3 3 3 3 3 3 3 4 4 4 4 4 4 4 4
1 1 1 1 1 1 1 1 1 1 2 2 3 3 3 3 3 3 3 2 2 3 3 2 2 3 4 5 3 3 3 3 3 3 3 3 4 4 4 4 4 4 4 4
1 1 1 1 1 1 1 0 1 1 1 2 2 3 3 3 2 2 2 2 2 3 3 2 4 6 7 4 3 3 3 3 3 3 3 3 4 4 4 5 4 4 4 4
2 1 1 1 1 1 1 1 1 1 2 2 2 3 3 2 2 1 1 3 3 4 3 3 5 7 7 3 3 3 3 3 3 3 3 3 3 3 3 4 4 4 4 5
2 1 1 1 1 1 1 1 1 1 1 1 2 2 2 2 2 2 1 2 3 4 2 4 6 7 4 3 3 3 3 3 3 4 3 3 3 3 3 4 4 4 4 4
2 1 0 1 1 1 1 1 1 1 1 1 1 2 2 2 2 2 2 2 3 4 3 2 3 4 3 3 3 3 3 4 4 4 4 4 4 4 4 4 5 4 4 4
2 1 1 1 1 1 1 1 1 1 1 1 1 1 2 2 2 2 2 2 2 2 2 2 2 2 3 3 3 3 3 3 3 3 4 4 4 4 4 5 4 4 4 4
Wind_Direction
279 284 276 270 273 269 261 262 267 279 288 288 209 187 150 149 138 128 130 121 123 124 131 139 185 126 240 240 197 179 171 176 169 167 155 199 200 240 266 270 254 192 190 201
279 275 266 262 261 259 257 261 264 271 280 298 329 64 95 139 139 148 164 163 165 182 153 183 206 180 254 271 280 198 161 141 133 139 154 219 227 260 277 287 273 225 216 211
279 286 279 258 256 250 247 250 258 266 282 321 309 352 105 120 125 190 339 315 209 237 230 230 217 191 221 260 259 44 100 122 127 115 140 214 258 263 267 263 275 274 245 225
277 281 265 256 297 276 260 262 267 275 297 303 300 33 31 64 111 74 26 348 339 305 287 278 267 214 217 247 209 138 20 87 128 146 173 229 230 224 235 257 260 257 252 235
266 270 271 264 250 244 254 260 277 291 319 332 354 92 26 65 64 62 29 347 337 325 327 333 345 341 289 262 211 95 54 263 133 166 208 226 248 231 236 247 251 248 245 222
259 266 269 312 34 8 277 251 3 351 331 339 359 275 283 64 62 48 40 18 359 340 355 7 355 346 318 341 355 329 319 291 240 198 208 225 236 240 248 240 243 248 245 227
252 260 266 29 57 338 240 334 10 7 346 320 297 315 2 37 46 48 47 31 31 22 13 359 0 356 337 349 329 327 345 329 300 252 230 229 229 230 248 242 243 254 257 246
238 250 256 108 147 9 25 22 5 1 348 350 358 4 10 27 39 45 58 50 51 27 351 353 2 343 324 316 319 334 334 309 285 268 275 265 231 242 251 247 248 256 261 258
258 244 36 41 42 8 1 354 356 355 352 356 342 346 352 13 30 34 34 33 27 347 306 295 294 303 294 299 313 313 307 298 295 294 279 277 222 228 252 250 248 261 261 263
274 264 307 327 343 339 338 340 344 343 344 337 328 346 351 349 6 17 10 3 347 306 293 292 270 267 285 301 303 300 284 278 281 277 283 285 264 226 234 254 257 260 264 270
272 279 284 279 305 317 324 337 333 332 330 325 337 340 332 330 350 354 346 340 312 294 293 295 301 292 301 306 304 291 280 270 273 266 261 273 275 261 245 237 234 241 248 249
275 304 302 312 350 352 337 329 328 325 319 325 331 328 330 330 347 344 335 331 325 317 314 311 313 314 311 287 281 284 282 274 265 265 259 257 265 287 282 258 252 243 238 240
292 315 320 324 331 333 325 323 319 312 315 318 320 328 329 340 348 342 333 334 332 326 319 314 317 319 320 312 296 293 294 294 285 268 263 257 255 256 275 285 274 261 253 250
308 310 300 306 314 323 318 320 322 326 323 319 334 354 345 342 339 336 333 335 331 324 319 320 325 328 333 334 326 312 306 298 293 276 270 266 260 257 259 266 275 277 268 256
284 282 287 299 307 314 329 333 325 318 322 346 6 358 345 337 330 332 333 329 325 326 325 325 327 330 338 339 338 332 322 306 292 287 283 278 277 274 270 272 272 275 276 265
278 272 271 279 298 314 323 313 304 312 326 338 346 341 332 326 326 328 326 321 316 316 319 327 330 335 339 341 337 327 318 311 308 296 283 281 278 279 282 283 284 286 289 284
267 260 260 271 280 279 281 285 296 310 310 312 316 319 319 316 314 315 313 311 305 307 321 335 337 337 328 326 320 308 303 296 289 291 286 285 282 280 279 283 287 286 284 278
264 265 271 276 283 282 281 285 292 292 295 316 326 314 301 300 302 308 313 315 321 324 329 338 342 326 318 330 323 308 299 292 286 286 295 301 298 290 286 283 283 283 285 281
259 255 258 268 280 283 280 283 292 308 334 335 312 294 292 294 302 311 319 321 320 314 325 343 328 310 311 337 323 293 285 288 292 296 297 299 297 297 297 295 292 291 292 290
242 228 241 266 286 293 294 296 307 322 327 321 309 304 306 312 318 316 314 312 321 328 334 337 319 302 315 327 324 302 295 294 295 295 294 294 294 297 297 298 298 298 299 297
237 235 236 248 283 315 311 308 320 322 324 313 300 299 303 308 311 313 311 311 332 350 341 327 320 331 343 338 316 304 303 304 302 299 297 296 294 295 295 295 296 297 297 297
227 218 212 207 222 277 287 302 315 310 311 309 310 310 309 307 309 310 312 309 319 347 333 318 337 348 343 339 315 308 306 309 309 308 308 306 303 303 303 304 303 303 304 303
246 234 225 219 232 256 268 294 302 295 290 297 300 300 302 308 308 308 313 328 338 341 336 335 344 342 338 327 307 306 308 308 310 310 307 308 310 310 311 313 312 310 310 309
244 242 245 247 259 263 272 293 307 306 309 313 310 315 324 321 313 320 342 350 355 347 347 344 337 333 329 317 310 311 311 310 309 309 310 308 306 306 311 314 313 312 310 309
256 250 244 252 260 266 273 281 290 291 295 305 315 332 335 325 324 338 352 348 346 346 343 333 331 328 321 312 318 318 317 317 317 316 313 313 313 315 317 315 314 313 312 309
280 270 252 260 278 280 273 268 273 290 306 320 336 346 346 345 341 348 356 345 339 336 333 326 321 322 318 322 327 327 326 324 324 324 322 321 319 316 314 314 313 313 312 311
293 280 257 257 258 261 272 276 282 298 309 313 321 337 341 339 341 344 341 336 333 332 331 330 328 328 330 333 332 331 331 330 330 328 326 325 323 320 321 318 316 315 313 306